Precipitable_Water
1.44 1.53 1.51 1.51 1.55 1.67 1.71 1.58 1.77 1.75 1.61 1.36 1.28 1.31 1.30 1.25 1.27 1.21 1.09 1.16 1.13 1.11
1.34 1.39 1.40 1.49 1.54 1.68 1.88 1.79 1.80 1.85 1.78 1.71 1.30 1.24 1.24 1.21 1.21 1.21 1.11 1.04 1.08 1.06
1.36 1.35 1.36 1.46 1.50 1.58 1.75 1.69 1.84 2.01 1.90 1.88 1.57 1.24 1.25 1.20 1.19 1.11 1.08 1.07 0.96 0.96
1.43 1.42 1.42 1.39 1.46 1.52 1.62 1.77 1.92 2.07 2.07 1.97 1.75 1.61 1.44 1.40 1.35 1.20 1.04 0.93 0.90 0.95
1.44 1.45 1.39 1.39 1.42 1.51 1.62 1.94 2.13 2.18 2.14 2.13 1.91 1.80 1.68 1.65 1.57 1.44 1.17 0.97 0.90 0.95
1.38 1.40 1.36 1.37 1.44 1.59 1.78 1.89 1.98 1.86 1.84 1.83 1.84 1.70 1.75 1.67 1.56 1.51 1.38 1.12 1.00 1.01
1.42 1.47 1.51 1.43 1.45 1.60 1.76 1.79 1.72 1.78 1.79 1.71 1.80 1.81 1.74 1.72 1.65 1.73 1.59 1.38 1.15 1.12
1.49 1.54 1.60 1.70 1.68 1.72 1.69 1.73 1.82 1.84 1.88 1.87 1.79 1.76 1.78 1.74 1.72 1.73 1.62 1.35 1.24 1.23
1.45 1.52 1.61 1.76 1.82 1.83 1.78 1.82 1.86 1.88 1.93 1.81 1.85 1.79 1.75 1.72 1.69 1.61 1.61 1.36 1.37 1.36
1.41 1.45 1.56 1.72 1.78 1.81 1.85 1.92 1.96 1.89 1.92 1.83 1.80 1.76 1.69 1.70 1.64 1.56 1.58 1.47 1.38 1.34
1.45 1.50 1.61 1.74 1.83 1.89 1.93 1.93 1.90 1.88 1.86 1.87 1.83 1.68 1.64 1.72 1.60 1.59 1.55 1.47 1.34 1.24
1.57 1.56 1.66 1.72 1.83 1.91 1.89 1.89 1.90 1.92 1.83 1.76 1.72 1.64 1.66 1.64 1.62 1.56 1.42 1.32 1.19 1.27
1.75 1.76 1.78 1.83 1.88 1.95 1.99 1.95 1.93 1.83 1.83 1.79 1.58 1.62 1.65 1.63 1.56 1.41 1.25 1.17 1.21 1.20
1.94 1.87 1.91 1.95 1.98 1.97 1.86 1.81 1.83 1.84 1.83 1.69 1.54 1.56 1.60 1.57 1.42 1.32 1.19 1.12 1.14 1.11
Wind_Speed
11 9 8 7 6 5 4 1 2 1 1 2 2 2 2 2 2 2 3 3 3 4
12 11 9 8 8 7 6 4 4 4 3 3 3 3 4 4 4 5 5 5 5 6
12 11 11 9 8 8 7 6 6 6 5 5 5 6 7 8 8 8 8 8 8 8
12 11 11 11 10 9 9 9 9 9 7 8 8 8 11 12 12 12 12 11 11 11
12 11 12 11 11 11 10 10 8 7 11 14 12 11 18 16 16 15 14 13 12 12
12 12 12 12 12 11 11 9 8 7 8 15 8 12 15 15 18 17 14 14 14 13
13 12 12 12 13 13 12 12 11 13 13 14 13 15 15 13 10 15 16 16 15 14
15 14 13 13 14 14 15 15 15 16 17 18 17 17 14 10 12 11 13 12 14 13
17 16 16 15 15 15 16 16 16 17 16 18 19 15 12 11 11 8 7 8 10 12
19 18 18 18 17 16 16 16 16 17 17 17 17 14 12 11 10 8 10 9 10 10
20 20 20 19 19 18 18 18 16 18 18 17 16 14 11 11 10 11 9 9 9 9
22 21 21 21 20 21 20 19 19 18 17 17 16 13 12 11 11 10 10 9 9 10
21 22 22 22 22 21 20 18 19 19 18 16 15 13 11 11 12 10 10 9 10 11
22 21 22 22 21 20 18 19 18 19 17 16 15 12 12 12 11 10 10 10 11 11
Wind_Direction
211 213 216 219 216 214 211 203 210 260 285 278 258 276 273 281 292 308 305 303 318 331
215 218 218 222 227 230 227 237 246 263 277 279 277 279 276 277 274 291 297 296 299 309
218 221 224 224 226 228 230 243 255 267 265 274 281 277 282 282 278 278 283 287 291 299
219 221 224 226 229 235 244 254 261 260 264 273 279 289 295 283 278 278 277 279 282 288
221 226 229 233 235 242 252 262 267 282 300 283 279 281 316 275 272 275 273 271 273 279
225 231 236 237 240 246 254 260 268 297 343 10 297 307 309 304 279 258 268 270 268 273
230 234 240 243 244 249 255 260 264 276 285 322 325 319 311 311 291 268 268 272 260 263
237 241 244 248 250 252 258 263 266 281 281 306 315 316 313 307 301 291 270 258 256 262
242 245 247 249 254 258 262 264 267 277 288 299 311 310 305 298 305 292 280 262 260 264
245 248 249 251 255 260 262 267 268 273 289 302 308 305 290 291 291 285 282 270 268 269
248 250 251 253 256 259 262 264 265 273 285 294 300 299 285 283 280 292 277 279 268 268
250 251 251 253 255 259 261 261 266 275 284 293 295 289 282 275 276 281 279 270 271 279
253 253 253 253 255 259 258 259 267 273 281 286 290 285 275 273 275 271 273 275 277 284
258 258 255 254 252 255 256 257 268 274 279 285 285 279 273 270 266 266 270 274 283 284